Time,TemperatureF,DewpointF,PressureIn,WindDirection,WindDirectionDegrees,WindSpeedMPH,WindSpeedGustMPH,Humidity,HourlyPrecipIn,Conditions,Clouds,dailyrainin,SoftwareType,DateUTC
2013-10-30 00:13:00,32.0,27.0,30.14,SE,135,0.0,0.0,82,0.00,,,0.00,,2013-10-30 04:13:00,
2013-10-30 00:44:00,32.0,27.0,30.13,East,90,0.0,0.0,82,0.00,,,0.00,,2013-10-30 04:44:00,
2013-10-30 00:53:00,32.0,27.0,30.12,SE,135,0.0,0.0,83,0.00,,,0.00,,2013-10-30 04:53:00,
2013-10-30 01:13:00,32.0,27.0,30.12,SE,135,0.0,0.0,83,0.00,,,0.00,,2013-10-30 05:13:00,
2013-10-30 01:22:00,32.0,27.0,30.11,SE,135,0.0,0.0,83,0.00,,,0.00,,2013-10-30 05:22:00,
2013-10-30 01:53:00,32.0,27.0,30.12,SE,135,0.0,0.0,83,0.00,,,0.00,,2013-10-30 05:53:00,
2013-10-30 02:13:00,32.0,27.0,30.12,ESE,112,0.0,0.0,83,0.00,,,0.00,,2013-10-30 06:13:00,
2013-10-30 02:22:00,33.0,29.0,30.12,ESE,112,0.0,0.0,84,0.00,,,0.00,,2013-10-30 06:22:00,
2013-10-30 02:42:00,33.0,29.0,30.11,SE,135,0.0,0.0,84,0.00,,,0.00,,2013-10-30 06:42:00,
2013-10-30 02:52:00,33.0,29.0,30.11,East,100,0.0,0.0,84,0.00,,,0.00,,2013-10-30 06:52:00,
2013-10-30 03:11:00,33.0,29.0,30.10,ESE,112,0.0,0.0,85,0.00,,,0.00,,2013-10-30 07:11:00,
2013-10-30 03:21:00,33.0,29.0,30.10,South,180,0.0,0.0,85,0.00,,,0.00,,2013-10-30 07:21:00,
2013-10-30 03:42:00,33.0,29.0,30.09,NNE,31,0.0,0.0,85,0.00,,,0.00,,2013-10-30 07:42:00,
2013-10-30 03:52:00,33.0,29.0,30.09,ESE,112,0.0,0.0,85,0.00,,,0.00,,2013-10-30 07:52:00,
2013-10-30 04:11:00,33.0,29.0,30.09,SE,135,0.0,0.0,86,0.00,,,0.00,,2013-10-30 08:11:00,
2013-10-30 04:21:00,34.0,30.0,30.09,NNE,22,0.0,0.0,86,0.00,,,0.00,,2013-10-30 08:21:00,
2013-10-30 04:42:00,33.0,29.0,30.09,West,270,0.0,0.0,86,0.00,,,0.00,,2013-10-30 08:42:00,
2013-10-30 04:52:00,33.0,29.0,30.09,West,270,0.0,0.0,86,0.00,,,0.00,,2013-10-30 08:52:00,
2013-10-30 05:11:00,34.0,30.0,30.09,NW,315,0.0,0.0,86,0.00,,,0.00,,2013-10-30 09:11:00,
2013-10-30 05:22:00,34.0,30.0,30.08,WNW,292,0.0,0.0,86,0.00,,,0.00,,2013-10-30 09:22:00,
2013-10-30 05:42:00,34.0,30.0,30.08,WNW,292,0.0,0.0,86,0.00,,,0.00,,2013-10-30 09:42:00,
2013-10-30 05:54:00,34.0,30.0,30.09,WNW,292,0.0,0.0,86,0.00,,,0.00,,2013-10-30 09:54:00,
2013-10-30 06:13:00,34.0,30.0,30.08,WNW,292,0.0,0.0,86,0.00,,,0.00,,2013-10-30 10:13:00,
2013-10-30 06:23:00,34.0,30.0,30.08,WNW,292,0.0,0.0,86,0.00,,,0.00,,2013-10-30 10:23:00,
2013-10-30 06:43:00,34.0,30.0,30.08,WNW,292,0.0,0.0,86,0.00,,,0.00,,2013-10-30 10:43:00,
2013-10-30 06:53:00,34.0,30.0,30.08,WNW,292,0.0,0.0,86,0.00,,,0.00,,2013-10-30 10:53:00,
2013-10-30 07:02:00,34.0,30.0,30.08,WNW,292,0.0,0.0,86,0.00,,,0.00,,2013-10-30 11:02:00,
2013-10-30 07:12:00,34.0,30.0,30.08,WNW,292,0.0,0.0,86,0.00,,,0.00,,2013-10-30 11:12:00,
2013-10-30 07:22:00,35.0,31.0,30.08,WNW,292,0.0,0.0,86,0.00,,,0.00,,2013-10-30 11:22:00,
2013-10-30 07:42:00,35.0,31.0,30.08,WNW,292,0.0,0.0,86,0.00,,,0.00,,2013-10-30 11:42:00,
2013-10-30 07:52:00,35.0,32.0,30.08,WNW,292,0.0,0.0,87,0.00,,,0.00,,2013-10-30 11:52:00,
2013-10-30 08:12:00,34.0,31.0,30.06,WNW,292,0.0,0.0,87,0.00,,,0.00,,2013-10-30 12:12:00,
2013-10-30 08:22:00,34.0,31.0,30.06,WNW,292,0.0,0.0,87,0.00,,,0.00,,2013-10-30 12:22:00,
2013-10-30 08:42:00,35.0,32.0,30.06,WNW,292,0.0,0.0,87,0.00,,,0.00,,2013-10-30 12:42:00,
2013-10-30 08:52:00,35.0,32.0,30.06,WNW,292,0.0,0.0,87,0.00,,,0.00,,2013-10-30 12:52:00,
2013-10-30 09:11:00,35.0,32.0,30.06,WNW,292,0.0,0.0,87,0.00,,,0.00,,2013-10-30 13:11:00,
2013-10-30 09:22:00,35.0,32.0,30.06,WNW,292,6.0,9.0,87,0.00,,,0.00,,2013-10-30 13:22:00,
2013-10-30 09:52:00,35.0,32.0,30.06,WNW,292,0.0,0.0,87,0.00,,,0.00,,2013-10-30 13:52:00,
2013-10-30 10:11:00,35.0,32.0,30.06,WNW,292,0.0,0.0,87,0.00,,,0.00,,2013-10-30 14:11:00,
2013-10-30 10:21:00,36.0,33.0,30.05,WNW,292,30.0,49.0,87,0.00,,,0.00,,2013-10-30 14:21:00,
2013-10-30 10:42:00,36.0,33.0,30.05,WNW,292,0.0,49.0,87,0.00,,,0.00,,2013-10-30 14:42:00,
2013-10-30 10:52:00,37.0,34.0,30.05,SSE,158,0.0,0.0,88,0.00,,,0.00,,2013-10-30 14:52:00,
2013-10-30 11:11:00,38.0,34.0,30.04,SE,135,0.0,1.0,87,0.00,,,0.00,,2013-10-30 15:11:00,
2013-10-30 11:22:00,39.0,35.0,30.03,SSE,158,1.0,2.0,87,0.00,,,0.00,,2013-10-30 15:22:00,
2013-10-30 11:43:00,40.0,36.0,30.03,SE,135,1.0,1.0,86,0.00,,,0.00,,2013-10-30 15:43:00,
2013-10-30 11:54:00,41.0,37.0,30.03,SSE,158,1.0,2.0,84,0.00,,,0.00,,2013-10-30 15:54:00,
2013-10-30 12:12:00,41.0,36.0,30.02,SE,135,1.0,1.0,83,0.00,,,0.00,,2013-10-30 16:12:00,
2013-10-30 12:23:00,42.0,37.0,30.02,ESE,113,1.0,1.0,83,0.00,,,0.00,,2013-10-30 16:23:00,
2013-10-30 12:42:00,42.0,37.0,30.03,SSE,158,1.0,2.0,82,0.00,,,0.00,,2013-10-30 16:42:00,
2013-10-30 12:53:00,42.0,37.0,30.02,SSE,158,1.0,1.0,82,0.00,,,0.00,,2013-10-30 16:53:00,
2013-10-30 13:23:00,42.0,37.0,30.01,SSE,158,1.0,5.0,82,0.00,,,0.00,,2013-10-30 17:23:00,
2013-10-30 13:42:00,42.0,37.0,30.01,SSE,158,1.0,1.0,81,0.00,,,0.00,,2013-10-30 17:42:00,
2013-10-30 13:52:00,43.0,38.0,29.99,SSW,202,0.0,1.0,82,0.00,,,0.00,,2013-10-30 17:52:00,
2013-10-30 14:12:00,43.0,38.0,29.98,South,180,2.0,3.0,81,0.00,,,0.00,,2013-10-30 18:12:00,
2013-10-30 14:21:00,43.0,38.0,29.97,SSE,158,1.0,2.0,82,0.00,,,0.00,,2013-10-30 18:21:00,
2013-10-30 14:42:00,43.0,38.0,29.96,SE,135,7.0,17.0,82,0.00,,,0.00,,2013-10-30 18:42:00,
2013-10-30 14:52:00,43.0,38.0,29.95,SE,135,1.0,54.0,82,0.00,,,0.00,,2013-10-30 18:52:00,
2013-10-30 15:11:00,43.0,38.0,29.95,South,171,1.0,2.0,82,0.00,,,0.00,,2013-10-30 19:11:00,
2013-10-30 15:21:00,43.0,38.0,29.94,SSE,158,1.0,1.0,83,0.00,,,0.00,,2013-10-30 19:21:00,
2013-10-30 15:52:00,43.0,38.0,29.92,ENE,72,0.0,56.0,84,0.00,,,0.00,,2013-10-30 19:52:00,
2013-10-30 16:12:00,44.0,40.0,29.91,ESE,116,0.0,3.0,85,0.00,,,0.00,,2013-10-30 20:12:00,
2013-10-30 16:22:00,44.0,40.0,29.91,ESE,109,1.0,3.0,85,0.00,,,0.00,,2013-10-30 20:22:00,
2013-10-30 16:42:00,44.0,40.0,29.90,East,90,1.0,1.0,85,0.00,,,0.00,,2013-10-30 20:42:00,
2013-10-30 16:52:00,44.0,40.0,29.90,SE,146,1.0,3.0,85,0.00,,,0.00,,2013-10-30 20:52:00,
2013-10-30 17:21:00,45.0,41.0,29.88,East,97,1.0,6.0,85,0.00,,,0.00,,2013-10-30 21:21:00,
2013-10-30 17:53:00,46.0,42.0,29.86,SSE,155,1.0,5.0,85,0.00,,,0.00,,2013-10-30 21:53:00,
2013-10-30 18:13:00,46.0,42.0,29.86,SE,143,1.0,3.0,85,0.00,,,0.00,,2013-10-30 22:13:00,
2013-10-30 18:23:00,46.0,42.0,29.85,ESE,118,0.0,6.0,85,0.00,,,0.00,,2013-10-30 22:23:00,
2013-10-30 18:43:00,46.0,42.0,29.85,SSE,158,0.0,5.0,85,0.00,,,0.00,,2013-10-30 22:43:00,
2013-10-30 18:54:00,46.0,42.0,29.82,ESE,122,3.0,3.0,85,0.00,,,0.00,,2013-10-30 22:54:00,
2013-10-30 19:12:00,45.0,41.0,29.82,East,88,0.0,3.0,85,0.00,,,0.00,,2013-10-30 23:12:00,
2013-10-30 19:22:00,45.0,41.0,29.80,ESE,116,0.0,1.0,85,0.00,,,0.00,,2013-10-30 23:22:00,
2013-10-30 19:53:00,45.0,41.0,29.82,NNE,22,0.0,0.0,86,0.00,,,0.00,,2013-10-30 23:53:00,
2013-10-30 20:11:00,45.0,41.0,29.80,NE,38,1.0,1.0,86,0.00,,,0.00,,2013-10-31 00:11:00,
2013-10-30 20:22:00,45.0,41.0,29.80,SE,143,0.0,1.0,86,0.00,,,0.00,,2013-10-31 00:22:00,
2013-10-30 20:52:00,45.0,41.0,29.79,NE,45,0.0,1.0,87,0.00,,,0.00,,2013-10-31 00:52:00,
2013-10-30 21:12:00,45.0,42.0,29.78,SSE,158,0.0,1.0,88,0.00,,,0.00,,2013-10-31 01:12:00,
2013-10-30 21:22:00,45.0,42.0,29.78,NE,49,0.0,3.0,88,0.00,,,0.00,,2013-10-31 01:22:00,
2013-10-30 21:42:00,46.0,43.0,29.77,East,84,1.0,3.0,88,0.00,,,0.00,,2013-10-31 01:42:00,
2013-10-30 21:53:00,46.0,43.0,29.75,SE,128,0.0,1.0,88,0.00,,,0.00,,2013-10-31 01:53:00,
2013-10-30 22:12:00,46.0,43.0,29.75,SSW,202,1.0,1.0,88,0.00,,,0.00,,2013-10-31 02:12:00,
2013-10-30 22:22:00,46.0,43.0,29.75,SSW,202,1.0,1.0,88,0.00,,,0.00,,2013-10-31 02:22:00,
2013-10-30 22:32:00,46.0,43.0,29.75,SSW,202,1.0,1.0,88,0.00,,,0.00,,2013-10-31 02:32:00,
2013-10-30 22:42:00,46.0,43.0,29.75,SSW,202,1.0,1.0,88,0.00,,,0.00,,2013-10-31 02:42:00,
2013-10-30 23:12:00,48.0,45.0,29.71,NE,40,0.0,3.0,89,0.00,,,0.00,,2013-10-31 03:12:00,
2013-10-30 23:22:00,49.0,46.0,29.70,ENE,59,4.0,7.0,89,0.00,,,0.00,,2013-10-31 03:22:00,
2013-10-30 23:44:00,49.0,46.0,29.71,South,180,2.0,5.0,89,0.00,,,0.00,,2013-10-31 03:44:00,
2013-10-30 23:55:00,49.0,46.0,29.71,SW,226,2.0,2.0,88,0.00,,,0.00,,2013-10-31 03:55:00,